Weather History for KARG - May, 2014

Change the Weather History Date:

Thursday, May 15, 2014

  Actual Average Record
Temperature  
Mean Temperature 56 °F -  
Max Temperature 68 °F 77 °F 91 °F (2001)
Min Temperature 44 °F 58 °F 44 °F (2014)
Degree Days  
Heating Degree Days 9    
Growing Degree Days 6 (Base 50)    
Moisture  
Dew Point 45 °F    
Average Humidity 70    
Maximum Humidity 93    
Minimum Humidity 46    
Precipitation  
Precipitation 0.01 in - - ()
Sea Level Pressure  
Sea Level Pressure 30.11 in    
Wind  
Wind Speed 9 mph (West)    
Max Wind Speed 20 mph    
Max Gust Speed 36 mph    
Visibility 10 miles    
Events Thunderstorm    
Averages and records for this station are not official NWS values.
T = Trace of Precipitation, MM = Missing Value Source: NWS Daily Summary

Daily Weather History Graph

Daily Weather History Graph

Search for Another Location

Airport or City:

Trip Planner

Search our weather history database for the weather conditions in past years. The results will help you decide how hot, cold, wet, or windy it might be!

Date:

Astronomy

May. 15, 2014 Rise Set
Actual Time 5:57 AM CDT 8:02 PM CDT
Civil Twilight 5:29 AM CDT 8:31 PM CDT
Nautical Twilight 4:54 AM CDT 9:06 PM CDT
Astronomical Twilight 4:16 AM CDT 9:44 PM CDT
Moon 9:11 PM CDT (5/15) 6:44 AM CDT (5/15)
Length of Visible Light 15h 02m
Length of Day
14h 05m
Full, 99% of the Moon is Illuminated
May 15
Full
May 21
Last Quarter
May 28
New
Jun 5
First Quarter
Jun 12
Full

Hourly Weather History & Observations

Time (CDT) Temp. Windchill Dew Point Humidity Pressure Visibility Wind Dir Wind Speed Gust Speed Precip Events Conditions
12:15 AM 46.4 °F 40.4 °F 42.8 °F 87% 30.11 in 10.0 mi NW 13.8 mph - N/A   Overcast
12:35 AM 46.4 °F 40.7 °F 42.8 °F 87% 30.11 in 10.0 mi NW 12.7 mph - N/A   Overcast
12:55 AM 46.4 °F 41.1 °F 42.8 °F 87% 30.11 in 10.0 mi WNW 11.5 mph - N/A   Overcast
1:15 AM 46.4 °F 41.1 °F 42.8 °F 87% 30.11 in 10.0 mi WNW 11.5 mph - N/A   Overcast
1:35 AM 46.4 °F 41.5 °F 41.0 °F 81% 30.11 in 10.0 mi WNW 10.4 mph - N/A   Overcast
1:55 AM 46.4 °F 42.4 °F 42.8 °F 87% 30.11 in 10.0 mi WNW 8.1 mph - N/A   Overcast
2:15 AM 46.4 °F 43.5 °F 42.8 °F 87% 30.10 in 10.0 mi West 5.8 mph - N/A   Overcast
2:35 AM 46.4 °F 43.5 °F 42.8 °F 87% 30.10 in 10.0 mi WNW 5.8 mph - N/A   Overcast
2:55 AM 46.4 °F 41.1 °F 41.0 °F 81% 30.10 in 10.0 mi WNW 11.5 mph - N/A   Overcast
3:15 AM 46.4 °F 42.4 °F 42.8 °F 87% 30.10 in 10.0 mi WNW 8.1 mph - N/A   Scattered Clouds
3:35 AM 46.4 °F 42.9 °F 42.8 °F 87% 30.10 in 10.0 mi WNW 6.9 mph - N/A   Partly Cloudy
3:55 AM 46.4 °F 42.4 °F 42.8 °F 87% 30.11 in 10.0 mi West 8.1 mph - N/A   Mostly Cloudy
4:15 AM 46.4 °F 42.4 °F 41.0 °F 81% 30.11 in 10.0 mi West 8.1 mph - N/A   Mostly Cloudy
4:35 AM 46.4 °F 41.9 °F 41.0 °F 81% 30.11 in 10.0 mi West 9.2 mph - N/A   Partly Cloudy
4:55 AM 44.6 °F 41.4 °F 41.0 °F 87% 30.12 in 10.0 mi West 5.8 mph - N/A   Clear
5:15 AM 44.6 °F 42.2 °F 39.2 °F 81% 30.12 in 10.0 mi West 4.6 mph - N/A   Clear
5:35 AM 44.6 °F 42.2 °F 41.0 °F 87% 30.12 in 10.0 mi WSW 4.6 mph - N/A   Clear
5:55 AM 44.6 °F 43.1 °F 41.0 °F 87% 30.12 in 10.0 mi West 3.5 mph - N/A   Clear
6:15 AM 44.6 °F - 39.2 °F 81% 30.13 in 10.0 mi Calm Calm - N/A   Clear
6:35 AM 44.6 °F - 41.0 °F 87% 30.13 in 10.0 mi Calm Calm - N/A   Clear
6:55 AM 44.6 °F 43.1 °F 42.8 °F 93% 30.13 in 10.0 mi SW 3.5 mph - N/A   Clear
7:15 AM 46.4 °F 44.3 °F 42.8 °F 87% 30.13 in 10.0 mi West 4.6 mph - N/A   Clear
7:35 AM 46.4 °F 41.9 °F 42.8 °F 87% 30.14 in 10.0 mi WSW 9.2 mph - N/A   Partly Cloudy
7:55 AM 48.2 °F - 42.8 °F 82% 30.14 in 10.0 mi West 6.9 mph - N/A   Mostly Cloudy
8:15 AM 48.2 °F - 44.6 °F 87% 30.14 in 10.0 mi WNW 9.2 mph - N/A   Scattered Clouds
8:35 AM 50.0 °F - 44.6 °F 82% 30.15 in 10.0 mi West 5.8 mph - N/A   Clear
8:55 AM 51.8 °F - 44.6 °F 76% 30.16 in 10.0 mi NW 4.6 mph - N/A   Clear
9:15 AM 51.8 °F - 44.6 °F 76% 30.16 in 10.0 mi West 5.8 mph - N/A   Clear
9:35 AM 53.6 °F - 46.4 °F 77% 30.16 in 10.0 mi WSW 4.6 mph - N/A   Clear
9:55 AM 55.4 °F - 46.4 °F 72% 30.17 in 10.0 mi SW 8.1 mph - N/A   Clear
10:15 AM 57.2 °F - 46.4 °F 67% 30.17 in 10.0 mi SSW 9.2 mph - N/A   Clear
10:35 AM 57.2 °F - 48.2 °F 72% 30.17 in 10.0 mi SW 9.2 mph - N/A   Clear
10:55 AM 57.2 °F - 46.4 °F 67% 30.16 in 10.0 mi SW 10.4 mph - N/A   Clear
11:15 AM 60.8 °F - 46.4 °F 59% 30.16 in 10.0 mi SSW 9.2 mph - N/A   Clear
11:35 AM 60.8 °F - 44.6 °F 55% 30.16 in 10.0 mi SW 6.9 mph - N/A   Clear
11:55 AM 60.8 °F - 46.4 °F 59% 30.16 in 10.0 mi SW 6.9 mph - N/A   Clear
12:15 PM 62.6 °F - 46.4 °F 55% 30.15 in 10.0 mi SW 11.5 mph - N/A   Clear
12:35 PM 62.6 °F - 46.4 °F 55% 30.14 in 10.0 mi SSW 10.4 mph 16.1 mph N/A   Clear
12:55 PM 62.6 °F - 46.4 °F 55% 30.13 in 10.0 mi SW 13.8 mph 18.4 mph N/A   Clear
1:15 PM 64.4 °F - 46.4 °F 52% 30.13 in 10.0 mi SW 12.7 mph - N/A   Clear
2:15 PM 66.2 °F - 48.2 °F 52% 30.10 in 10.0 mi SW 12.7 mph 19.6 mph N/A   Clear
2:35 PM 66.2 °F - 48.2 °F 52% 30.09 in 10.0 mi SSW 13.8 mph 19.6 mph N/A   Partly Cloudy
2:55 PM 66.2 °F - 48.2 °F 52% 30.07 in 10.0 mi SSW 15.0 mph 20.7 mph N/A   Partly Cloudy
3:15 PM 66.2 °F - 48.2 °F 52% 30.06 in 10.0 mi SW 18.4 mph 21.9 mph N/A   Clear
3:35 PM 68.0 °F - 48.2 °F 49% 30.05 in 10.0 mi SSW 13.8 mph 24.2 mph N/A   Clear
3:55 PM 68.0 °F - 46.4 °F 46% 30.03 in 10.0 mi South 16.1 mph 23.0 mph N/A   Clear
4:15 PM 66.2 °F - 44.6 °F 46% 30.04 in 10.0 mi SSW 19.6 mph - N/A Thunderstorm Clear
4:35 PM 60.8 °F - 48.2 °F 63% 30.05 in 8.0 mi WSW 8.1 mph 35.7 mph 0.01 in Thunderstorm Mostly Cloudy
4:55 PM 59.0 °F - 48.2 °F 67% 30.04 in 10.0 mi West 5.8 mph - 0.01 in   Scattered Clouds
5:15 PM 60.8 °F - 48.2 °F 63% 30.04 in 10.0 mi West 10.4 mph - N/A   Clear
5:35 PM 60.8 °F - 46.4 °F 59% 30.04 in 10.0 mi WSW 8.1 mph - N/A   Clear
5:55 PM 60.8 °F - 48.2 °F 63% 30.04 in 10.0 mi SSW 8.1 mph - N/A   Clear
6:15 PM 62.6 °F - 48.2 °F 59% 30.04 in 10.0 mi SSW 8.1 mph - N/A   Clear
6:35 PM 62.6 °F - 48.2 °F 59% 30.04 in 10.0 mi WSW 6.9 mph - N/A   Scattered Clouds
6:55 PM 62.6 °F - 48.2 °F 59% 30.05 in 10.0 mi WSW 8.1 mph - N/A   Mostly Cloudy
7:15 PM 62.6 °F - 50.0 °F 63% 30.04 in 10.0 mi WNW 5.8 mph - N/A   Mostly Cloudy
7:35 PM 62.6 °F - 48.2 °F 59% 30.04 in 10.0 mi WSW 10.4 mph - N/A   Mostly Cloudy
7:55 PM 60.8 °F - 48.2 °F 63% 30.05 in 10.0 mi West 8.1 mph - N/A   Clear
8:15 PM 59.0 °F - 48.2 °F 67% 30.07 in 10.0 mi West 9.2 mph - N/A   Clear
8:35 PM 59.0 °F - 48.2 °F 67% 30.08 in 10.0 mi West 10.4 mph - N/A   Clear
8:55 PM 57.2 °F - 48.2 °F 72% 30.08 in 10.0 mi West 6.9 mph - N/A   Clear
9:15 PM 57.2 °F - 48.2 °F 72% 30.09 in 10.0 mi NW 12.7 mph - N/A   Clear
9:35 PM 57.2 °F - 48.2 °F 72% 30.09 in 10.0 mi NNW 13.8 mph - N/A   Clear
9:55 PM 57.2 °F - 44.6 °F 63% 30.11 in 10.0 mi NNW 11.5 mph - N/A   Clear
10:15 PM 55.4 °F - 44.6 °F 67% 30.12 in 10.0 mi NW 10.4 mph - N/A   Clear
10:35 PM 53.6 °F - 42.8 °F 67% 30.13 in 10.0 mi NW 10.4 mph - N/A   Clear
10:55 PM 53.6 °F - 39.2 °F 58% 30.13 in 10.0 mi NW 8.1 mph - N/A   Clear
11:15 PM 51.8 °F - 39.2 °F 62% 30.13 in 10.0 mi NNW 6.9 mph - N/A   Clear
11:35 PM 51.8 °F - 39.2 °F 62% 30.13 in 10.0 mi NNW 4.6 mph - N/A   Clear
11:55 PM 51.8 °F - 37.4 °F 58% 30.12 in 10.0 mi North 5.8 mph - N/A   Clear